Home   Weather   Trois-Rivieres   Past weeks
Flag for Canada

Past Weather in Trois-Rivieres, Quebec, Canada — Yesterday and Last 2 Weeks

Now
62 °F

Cool.


Feels Like: 62 °F
Forecast: 71 / 59 °F
Wind: 1 mph from Northwest

Location: Trois Rivieres

Current Time: Sep 21, 2019 at 3:05:18 am

Latest Report: Sep 21, 2019 at 2:00 am


Visibility: N/A

Pressure: 30.12 "Hg

Humidity: 93%

Dew Point: 60 °F

Location of Trois-RivieresLocation

Past Weather in Trois-Rivieres — Graph

°F

Trois-Rivieres Temperature Yesterday

Maximum temperature yesterday: 74 °F (at 6:00 pm)
Minimum temperature yesterday: 56 °F (at 8:00 am)
Average temperature yesterday: 62 °F

High & Low Weather Summary for the Past Weeks

 TemperatureHumidityPressure
High74 °F (Sep 20, 6:00 pm)99% (Sep 11, 11:00 am)30.53 "Hg (Sep 11, 11:00 am)
Low43 °F (Sep 18, 7:00 am)34% (Sep 12, 5:00 pm)29.75 "Hg (Sep 7, 3:00 pm)
Average57 °F75%30.13 "Hg
* Reported Sep 6 1:00 am — Sep 21 1:00 am, Trois-Rivieres. Weather by CustomWeather, © 2019

Note: Actual official high and low records may vary slightly from our data, if they occured in-between our weather recording intervals... More about our weather records

Advertising

Trois-Rivieres Weather History for the Previous 24 Hours

Scroll right to see more
 ConditionsComfort  
Time TempWeatherWind HumidityBarometerVisibility
1:00 am
Sat, Sep 21
64 °FMild.2 mph86%30.11 "HgN/A
12:00 am64 °FMild.1 mph87%30.09 "HgN/A
11:00 pm
Fri, Sep 20
66 °FMild.2 mph83%30.10 "HgN/A
10:00 pm67 °FMild.1 mph76%30.10 "HgN/A
9:00 pm68 °FMild.3 mph66%30.07 "HgN/A
8:00 pm70 °FMild.6 mph64%30.05 "HgN/A
7:00 pm72 °FMild.6 mph58%30.04 "HgN/A
6:00 pm74 °FMild.8 mph51%30.04 "HgN/A
2:00 pm69 °FMild.10 mph61%30.08 "HgN/A
1:00 pm66 °FMild.13 mph75%30.09 "HgN/A
12:00 pm65 °FMild.15 mph71%30.12 "HgN/A
11:00 am61 °FCool.15 mph82%30.14 "HgN/A
9:00 am58 °FCool.12 mph85%30.16 "HgN/A
8:00 am56 °FCool.14 mph86%30.16 "HgN/A
7:00 am56 °FCool.14 mph80%30.15 "HgN/A
6:00 am57 °FCool.9 mph78%30.15 "HgN/A
5:00 am57 °FCool.12 mph73%30.15 "HgN/A
4:00 am57 °FCool.9 mph72%30.15 "HgN/A
3:00 am57 °FCool.8 mph75%30.15 "HgN/A
Weather by CustomWeather, © 2019

See weather overview